Location: Sungai Apap
(2.6167°N, 113.3833°E)
Time: 16:10:45
(UTC+00:00)

Cosmos 1892 Rocket - Pass Details

Date: 13 August 2024
Orbit: 602 x 628 km, 82.5° (Epoch: 18 September)

Event Time Altitude Azimuth Distance (km) Brightness Sun altitude
Rises 10:52:34 0° 171° (S) 2,903 6.8 -4.5°
Reaches altitude 10° 10:54:55 10° 163° (SSE) 1,991 5.9 -5.1°
Maximum altitude 10:59:02 40° 94° (E) 921 4.0 -6.1°
Drops below altitude 10° 11:03:08 10° 24° (NNE) 1,969 6.1 -7.0°
Sets 11:05:26 0° 17° (NNE) 2,866 7.0 -7.6°
